Weather in Emden

Germany     53°22′05″N   7°12′22″E
temp.,
°C
wind,
m/s
gust,
m/s
humid.,
%
clouds,
%
prec.,
mm/h
press.,
hPa
HPBL,
m
28 september, tue
tue2823:00+11sw39950 0.0 1018222
02:00+10sw36945 0.0 1020109
05:00+11ssw369418 0.0 1021109
08:00+10ssw36965 0.0 1021130
11:00+15ssw57780 0.3 1022438
14:00+17sw5660100 0.3 10221284
17:00+17s3462100 0.0 10211342
20:00+13sse35758 0.0 102076
29 september, wed
wed2923:00+11se358194 0.0 102082
02:00+11se4978100 0.0 1018167
05:00+11se41079100 0.0 1016210
08:00+11se41072100 0.0 1014232
11:00+15s71067100 0.0 1012860
14:00+12s71287100 2.3 1010896
17:00+9wsw162289100 3.2 10101313
20:00+9wsw81589100 7.4 1014996
30 september, thu
thu3023:00+10wsw101886100 0.9 10151413
02:00+10wsw111884100 3.6 10171157
05:00+9wsw101783100 0.0 1019934
08:00+8wsw815880 0.0 1021702
11:00+11wsw8127517 0.0 10231127
14:00+14wsw91258100 0.0 10231486
17:00+12sw81261100 0.0 10221435
20:00+11ssw61461100 0.1 10211214
1 october, fri
fri123:00+11ssw81566100 0.3 1020971
02:00+9ssw91786100 1.7 1019755
05:00+10ssw81678100 0.6 1018595
08:00+10ssw71676100 0.8 1017624
11:00+12ssw71566100 0.0 1017584
14:00+15ssw81460100 0.0 1016742
17:00+14s81460100 0.0 1014692
20:00+14s51457100 0.0 1013567
2 october, sat
sat223:00+14sw61260100 0.1 1012719
02:00+12ssw61277100 0.8 1010624
05:00+10ssw51196100 5.1 1009481
08:00+11sw5996100 6.6 1009732
11:00+12w359499 0.8 1010385
14:00+14wsw347498 0.9 1010883
17:00+13sw4679100 0.7 1008787
20:00+10ssw3988100 0.8 1007335